Time,TemperatureF,DewpointF,PressureIn,WindDirection,WindDirectionDegrees,WindSpeedMPH,WindSpeedGustMPH,Humidity,HourlyPrecipIn,Conditions,Clouds,dailyrainin,SoftwareType,DateUTC
2013-05-01 00:01:00,49.8,45.5,29.87,SE,135,4.0,4.0,85,0.00,,,0.00,meteohub,2013-05-01 04:01:00,
2013-05-01 00:07:00,49.8,45.5,29.87,SE,135,4.0,4.0,85,0.00,,,0.00,meteohub,2013-05-01 04:07:00,
2013-05-01 00:12:00,50.5,46.2,29.87,South,180,3.0,4.0,85,0.00,,,0.00,meteohub,2013-05-01 04:12:00,
2013-05-01 00:17:00,50.7,46.4,29.87,SE,135,2.0,4.0,85,0.00,,,0.00,meteohub,2013-05-01 04:17:00,
2013-05-01 00:22:00,50.5,45.9,29.87,South,180,4.0,5.0,84,0.00,,,0.00,meteohub,2013-05-01 04:22:00,
2013-05-01 00:27:00,50.4,45.7,29.87,South,180,2.0,5.0,84,0.00,,,0.00,meteohub,2013-05-01 04:27:00,
2013-05-01 00:32:00,50.2,45.5,29.87,South,180,2.0,5.0,84,0.00,,,0.00,meteohub,2013-05-01 04:32:00,
2013-05-01 00:37:00,50.0,45.3,29.87,SE,135,3.0,4.0,84,0.00,,,0.00,meteohub,2013-05-01 04:37:00,
2013-05-01 00:42:00,49.8,45.5,29.87,South,180,4.0,4.0,85,0.00,,,0.00,meteohub,2013-05-01 04:42:00,
2013-05-01 00:47:00,49.5,45.1,29.87,WNW,293,4.0,4.0,85,0.00,,,0.00,meteohub,2013-05-01 04:47:00,
2013-05-01 00:52:00,49.3,45.0,29.88,South,180,2.0,7.0,85,0.00,,,0.00,meteohub,2013-05-01 04:52:00,
2013-05-01 00:57:00,49.1,44.8,29.88,South,180,3.0,7.0,85,0.00,,,0.00,meteohub,2013-05-01 04:57:00,
2013-05-01 01:02:00,48.9,44.6,29.88,South,180,4.0,7.0,85,0.00,,,0.00,meteohub,2013-05-01 05:02:00,
2013-05-01 01:07:00,48.9,44.6,29.88,South,180,4.0,5.0,85,0.00,,,0.00,meteohub,2013-05-01 05:07:00,
2013-05-01 01:12:00,48.9,45.0,29.88,South,180,4.0,4.0,86,0.00,,,0.00,meteohub,2013-05-01 05:12:00,
2013-05-01 01:17:00,48.9,45.0,29.88,South,180,3.0,4.0,86,0.00,,,0.00,meteohub,2013-05-01 05:17:00,
2013-05-01 01:22:00,49.3,45.3,29.89,WSW,248,4.0,4.0,86,0.00,,,0.00,meteohub,2013-05-01 05:22:00,
2013-05-01 01:27:00,49.5,45.7,29.89,SE,135,3.0,5.0,87,0.00,,,0.00,meteohub,2013-05-01 05:27:00,
2013-05-01 01:32:00,50.0,46.0,29.89,SE,135,6.0,6.0,86,0.00,,,0.00,meteohub,2013-05-01 05:32:00,
2013-05-01 01:37:00,50.4,46.4,29.90,SE,135,4.0,6.0,86,0.00,,,0.00,meteohub,2013-05-01 05:37:00,
2013-05-01 01:42:00,50.9,47.1,29.90,WSW,248,6.0,6.0,87,0.00,,,0.00,meteohub,2013-05-01 05:42:00,
2013-05-01 01:47:00,51.3,47.5,29.90,South,180,4.0,7.0,87,0.00,,,0.00,meteohub,2013-05-01 05:47:00,
2013-05-01 01:52:00,51.3,47.3,29.91,WSW,248,4.0,7.0,86,0.00,,,0.00,meteohub,2013-05-01 05:52:00,
2013-05-01 01:57:00,51.1,47.1,29.91,WSW,248,3.0,7.0,86,0.00,,,0.00,meteohub,2013-05-01 05:57:00,
2013-05-01 02:02:00,50.9,46.9,29.91,SE,135,4.0,6.0,86,0.00,,,0.00,meteohub,2013-05-01 06:02:00,
2013-05-01 02:07:00,50.7,46.8,29.91,East,90,4.0,5.0,86,0.00,,,0.00,meteohub,2013-05-01 06:07:00,
2013-05-01 02:12:00,50.5,46.6,29.91,South,180,4.0,4.0,86,0.00,,,0.00,meteohub,2013-05-01 06:12:00,
2013-05-01 02:17:00,50.7,46.8,29.92,WSW,248,4.0,4.0,86,0.00,,,0.00,meteohub,2013-05-01 06:17:00,
2013-05-01 02:22:00,50.7,46.8,29.92,East,90,4.0,4.0,86,0.00,,,0.00,meteohub,2013-05-01 06:22:00,
2013-05-01 02:27:00,50.9,46.9,29.92,SE,135,2.0,5.0,86,0.00,,,0.00,meteohub,2013-05-01 06:27:00,
2013-05-01 02:32:00,51.1,47.1,29.92,WSW,248,5.0,5.0,86,0.00,,,0.00,meteohub,2013-05-01 06:32:00,
2013-05-01 02:37:00,51.3,47.3,29.92,NW,315,4.0,6.0,86,0.00,,,0.00,meteohub,2013-05-01 06:37:00,
2013-05-01 02:42:00,51.8,47.7,29.93,South,180,4.0,6.0,86,0.00,,,0.00,meteohub,2013-05-01 06:42:00,
2013-05-01 02:47:00,52.3,48.2,29.93,East,90,4.0,6.0,86,0.00,,,0.00,meteohub,2013-05-01 06:47:00,
2013-05-01 02:52:00,52.9,48.7,29.93,SSW,203,4.0,5.0,86,0.00,,,0.00,meteohub,2013-05-01 06:52:00,
2013-05-01 02:57:00,53.2,49.1,29.93,WSW,248,9.0,9.0,86,0.00,,,0.00,meteohub,2013-05-01 06:57:00,
2013-05-01 03:02:00,53.8,49.1,29.94,NW,315,6.0,9.0,84,0.00,,,0.00,meteohub,2013-05-01 07:02:00,
2013-05-01 03:07:00,54.7,49.6,29.95,NW,315,18.0,18.0,83,0.00,,,0.00,meteohub,2013-05-01 07:07:00,
2013-05-01 03:13:00,56.5,51.1,29.96,NW,315,9.0,18.0,82,0.00,,,0.00,meteohub,2013-05-01 07:13:00,
2013-05-01 03:18:00,57.4,49.5,29.97,NNE,23,12.0,18.0,75,0.00,,,0.00,meteohub,2013-05-01 07:18:00,
2013-05-01 03:23:00,56.8,48.9,29.98,North,-999,-999.0,18.0,75,0.00,,,0.00,meteohub,2013-05-01 07:23:00,
2013-05-01 03:28:00,56.3,47.8,29.97,NNW,338,21.0,21.0,73,0.00,,,0.00,meteohub,2013-05-01 07:28:00,
2013-05-01 03:33:00,55.8,48.0,29.98,NW,315,20.0,21.0,75,0.00,,,0.00,meteohub,2013-05-01 07:33:00,
2013-05-01 03:38:00,55.4,47.7,29.97,North,-999,-999.0,21.0,75,0.00,,,0.00,meteohub,2013-05-01 07:38:00,
2013-05-01 03:42:00,55.4,47.7,29.97,NNW,338,12.0,21.0,75,0.00,,,0.00,meteohub,2013-05-01 07:42:00,
2013-05-01 03:48:00,55.2,47.1,29.97,NW,315,16.0,20.0,74,0.00,,,0.00,meteohub,2013-05-01 07:48:00,
2013-05-01 03:53:00,54.9,47.1,29.98,NNW,338,18.0,23.0,75,0.00,,,0.00,meteohub,2013-05-01 07:53:00,
2013-05-01 03:58:00,55.2,48.2,29.98,NNW,338,19.0,23.0,77,0.00,,,0.00,meteohub,2013-05-01 07:58:00,
2013-05-01 04:03:00,55.4,48.0,29.99,NNW,338,18.0,23.0,76,0.00,,,0.00,meteohub,2013-05-01 08:03:00,
2013-05-01 04:08:00,56.1,48.7,29.99,North,-999,-999.0,22.0,76,0.00,,,0.00,meteohub,2013-05-01 08:08:00,
2013-05-01 04:13:00,57.4,49.8,29.99,NNW,338,25.0,25.0,76,0.00,,,0.00,meteohub,2013-05-01 08:13:00,
2013-05-01 04:18:00,58.1,50.2,29.99,NNW,338,27.0,28.0,75,0.00,,,0.00,meteohub,2013-05-01 08:18:00,
2013-05-01 04:23:00,58.5,50.2,29.99,North,0,27.0,28.0,74,0.00,,,0.00,meteohub,2013-05-01 08:23:00,
2013-05-01 04:28:00,58.3,50.0,29.99,NW,315,20.0,28.0,74,0.00,,,0.00,meteohub,2013-05-01 08:28:00,
2013-05-01 04:33:00,57.6,49.3,30.00,NNW,338,23.0,27.0,74,0.00,,,0.00,meteohub,2013-05-01 08:33:00,
2013-05-01 04:38:00,56.7,48.7,30.00,North,0,23.0,27.0,75,0.00,,,0.00,meteohub,2013-05-01 08:38:00,
2013-05-01 04:43:00,56.3,48.6,30.01,NNW,338,24.0,27.0,75,0.00,,,0.00,meteohub,2013-05-01 08:43:00,
2013-05-01 04:48:00,54.9,46.8,30.01,NNW,338,25.0,26.0,74,0.00,,,0.00,meteohub,2013-05-01 08:48:00,
2013-05-01 04:53:00,53.2,45.1,30.01,North,0,21.0,27.0,74,0.00,,,0.00,meteohub,2013-05-01 08:53:00,
2013-05-01 04:58:00,52.2,44.4,30.01,North,0,15.0,27.0,75,0.00,,,0.00,meteohub,2013-05-01 08:58:00,
2013-05-01 05:03:00,51.6,44.2,30.01,North,0,15.0,27.0,76,0.00,,,0.00,meteohub,2013-05-01 09:03:00,
2013-05-01 05:08:00,50.9,43.5,30.01,NE,45,11.0,25.0,76,0.00,,,0.00,meteohub,2013-05-01 09:08:00,
2013-05-01 05:13:00,50.4,43.2,30.01,NE,45,9.0,19.0,76,0.00,,,0.00,meteohub,2013-05-01 09:13:00,
2013-05-01 05:18:00,50.0,43.2,30.01,NE,45,7.0,16.0,77,0.00,,,0.00,meteohub,2013-05-01 09:18:00,
2013-05-01 05:23:00,49.8,43.2,30.01,NE,45,6.0,12.0,78,0.00,,,0.00,meteohub,2013-05-01 09:23:00,
2013-05-01 05:28:00,49.8,43.5,30.01,NE,45,6.0,12.0,79,0.00,,,0.00,meteohub,2013-05-01 09:28:00,
2013-05-01 05:33:00,50.0,43.3,30.01,NE,45,5.0,9.0,78,0.00,,,0.00,meteohub,2013-05-01 09:33:00,
2013-05-01 05:38:00,50.2,43.3,30.01,East,90,1.0,8.0,77,0.00,,,0.00,meteohub,2013-05-01 09:38:00,
2013-05-01 05:43:00,50.0,43.2,30.01,NE,45,2.0,8.0,77,0.00,,,0.00,meteohub,2013-05-01 09:43:00,
2013-05-01 05:48:00,50.0,43.3,30.01,East,90,2.0,8.0,78,0.00,,,0.00,meteohub,2013-05-01 09:48:00,
2013-05-01 05:53:00,50.2,43.5,30.01,East,90,4.0,4.0,78,0.00,,,0.00,meteohub,2013-05-01 09:53:00,
2013-05-01 05:58:00,51.1,44.4,30.02,SW,225,2.0,4.0,78,0.00,,,0.00,meteohub,2013-05-01 09:58:00,
2013-05-01 06:03:00,51.1,44.4,30.02,South,180,2.0,4.0,78,0.00,,,0.00,meteohub,2013-05-01 10:03:00,
2013-05-01 06:08:00,50.9,43.9,30.02,South,180,3.0,4.0,77,0.00,,,0.00,meteohub,2013-05-01 10:08:00,
2013-05-01 06:14:00,50.0,42.8,30.02,South,180,2.0,4.0,76,0.00,,,0.00,meteohub,2013-05-01 10:14:00,
2013-05-01 06:19:00,49.1,42.3,30.02,South,180,2.0,4.0,77,0.00,,,0.00,meteohub,2013-05-01 10:19:00,
2013-05-01 06:24:00,48.0,41.5,30.02,South,180,3.0,4.0,78,0.00,,,0.00,meteohub,2013-05-01 10:24:00,
2013-05-01 06:29:00,47.3,40.8,30.02,South,180,2.0,4.0,78,0.00,,,0.00,meteohub,2013-05-01 10:29:00,
2013-05-01 06:34:00,46.6,40.1,30.02,South,180,2.0,4.0,78,0.00,,,0.00,meteohub,2013-05-01 10:34:00,
2013-05-01 06:39:00,45.9,39.7,30.03,South,180,2.0,4.0,79,0.00,,,0.00,meteohub,2013-05-01 10:39:00,
2013-05-01 06:44:00,45.5,39.7,30.03,SW,225,2.0,4.0,80,0.00,,,0.00,meteohub,2013-05-01 10:44:00,
2013-05-01 06:49:00,45.3,39.9,30.04,West,270,2.0,3.0,81,0.00,,,0.00,meteohub,2013-05-01 10:49:00,
2013-05-01 06:54:00,45.1,39.7,30.04,South,180,2.0,3.0,81,0.00,,,0.00,meteohub,2013-05-01 10:54:00,
2013-05-01 06:59:00,44.6,38.8,30.03,South,180,2.0,2.0,80,0.00,,,0.00,meteohub,2013-05-01 10:59:00,
2013-05-01 07:04:00,43.9,38.5,30.04,South,180,2.0,2.0,81,0.00,,,0.00,meteohub,2013-05-01 11:04:00,
2013-05-01 07:09:00,43.3,37.9,30.04,South,180,1.0,2.0,81,0.00,,,0.00,meteohub,2013-05-01 11:09:00,
2013-05-01 07:14:00,43.2,37.8,30.04,South,180,0.0,2.0,81,0.00,,,0.00,meteohub,2013-05-01 11:14:00,
2013-05-01 07:19:00,43.0,37.6,30.04,SW,225,0.0,2.0,81,0.00,,,0.00,meteohub,2013-05-01 11:19:00,
2013-05-01 07:24:00,42.8,37.4,30.04,South,180,1.0,2.0,81,0.00,,,0.00,meteohub,2013-05-01 11:24:00,
2013-05-01 07:30:00,42.6,37.8,30.04,SE,135,2.0,2.0,83,0.00,,,0.00,meteohub,2013-05-01 11:30:00,
2013-05-01 07:35:00,42.8,37.8,30.05,SE,135,0.0,2.0,82,0.00,,,0.00,meteohub,2013-05-01 11:35:00,
2013-05-01 07:40:00,43.0,37.9,30.05,SE,135,1.0,2.0,82,0.00,,,0.00,meteohub,2013-05-01 11:40:00,
2013-05-01 07:45:00,43.2,38.1,30.05,SE,135,2.0,2.0,82,0.00,,,0.00,meteohub,2013-05-01 11:45:00,
2013-05-01 07:50:00,43.5,38.7,30.05,NE,45,2.0,2.0,83,0.00,,,0.00,meteohub,2013-05-01 11:50:00,
2013-05-01 07:55:00,43.9,39.0,30.05,NE,45,0.0,2.0,83,0.00,,,0.00,meteohub,2013-05-01 11:55:00,
2013-05-01 08:00:00,44.2,39.4,30.05,South,180,0.0,2.0,83,0.00,,,0.00,meteohub,2013-05-01 12:00:00,
2013-05-01 08:05:00,44.2,39.4,30.05,South,180,0.0,2.0,83,0.00,,,0.00,meteohub,2013-05-01 12:05:00,
2013-05-01 08:10:00,45.0,39.7,30.05,NE,45,2.0,2.0,82,0.00,,,0.00,meteohub,2013-05-01 12:10:00,
2013-05-01 08:15:00,45.1,39.9,30.06,East,90,1.0,2.0,82,0.00,,,0.00,meteohub,2013-05-01 12:15:00,
2013-05-01 08:20:00,45.3,40.1,30.06,East,90,0.0,2.0,82,0.00,,,0.00,meteohub,2013-05-01 12:20:00,
2013-05-01 08:25:00,45.5,40.3,30.06,East,90,0.0,2.0,82,0.00,,,0.00,meteohub,2013-05-01 12:25:00,
2013-05-01 08:30:00,46.0,40.8,30.06,East,90,1.0,1.0,82,0.00,,,0.00,meteohub,2013-05-01 12:30:00,
2013-05-01 08:35:00,46.9,42.1,30.07,NE,45,2.0,2.0,83,0.00,,,0.00,meteohub,2013-05-01 12:35:00,
2013-05-01 08:41:00,48.0,43.2,30.08,NE,45,11.0,13.0,83,0.00,,,0.00,meteohub,2013-05-01 12:41:00,
2013-05-01 08:46:00,50.4,44.8,30.07,NNE,23,5.0,13.0,81,0.00,,,0.00,meteohub,2013-05-01 12:46:00,
2013-05-01 08:51:00,51.6,45.7,30.07,North,0,2.0,13.0,80,0.00,,,0.00,meteohub,2013-05-01 12:51:00,
2013-05-01 08:56:00,52.3,44.6,30.07,NE,45,8.0,11.0,75,0.00,,,0.00,meteohub,2013-05-01 12:56:00,
2013-05-01 09:01:00,53.2,44.4,30.07,NE,45,6.0,10.0,72,0.00,,,0.00,meteohub,2013-05-01 13:01:00,
2013-05-01 09:06:00,52.9,43.7,30.08,North,0,8.0,10.0,71,0.00,,,0.00,meteohub,2013-05-01 13:06:00,
2013-05-01 09:11:00,52.9,43.7,30.08,North,0,6.0,10.0,71,0.00,,,0.00,meteohub,2013-05-01 13:11:00,
2013-05-01 09:16:00,52.9,43.7,30.08,NE,45,5.0,10.0,71,0.00,,,0.00,meteohub,2013-05-01 13:16:00,
2013-05-01 09:21:00,53.2,44.1,30.08,NE,45,5.0,8.0,71,0.00,,,0.00,meteohub,2013-05-01 13:21:00,
2013-05-01 09:26:00,53.8,44.2,30.08,East,90,2.0,7.0,70,0.00,,,0.00,meteohub,2013-05-01 13:26:00,
2013-05-01 09:31:00,54.3,44.8,30.08,NE,45,3.0,7.0,70,0.00,,,0.00,meteohub,2013-05-01 13:31:00,
2013-05-01 09:37:00,54.7,45.1,30.08,NE,45,4.0,5.0,70,0.00,,,0.00,meteohub,2013-05-01 13:37:00,
2013-05-01 09:42:00,55.9,45.5,30.08,NE,45,2.0,4.0,68,0.00,,,0.00,meteohub,2013-05-01 13:42:00,
2013-05-01 09:43:00,56.3,45.9,30.08,NE,45,2.0,4.0,68,0.00,,,0.00,meteohub,2013-05-01 13:43:00,
2013-05-01 09:47:00,56.7,46.2,30.09,North,0,2.0,4.0,68,0.00,,,0.00,meteohub,2013-05-01 13:47:00,
2013-05-01 09:52:00,57.2,45.9,30.08,NE,45,2.0,4.0,66,0.00,,,0.00,meteohub,2013-05-01 13:52:00,
2013-05-01 09:57:00,57.7,46.4,30.09,NE,45,0.0,4.0,66,0.00,,,0.00,meteohub,2013-05-01 13:57:00,
2013-05-01 10:02:00,58.1,46.8,30.09,NE,45,2.0,2.0,66,0.00,,,0.00,meteohub,2013-05-01 14:02:00,
2013-05-01 10:07:00,58.1,46.8,30.09,NE,45,2.0,2.0,66,0.00,,,0.00,meteohub,2013-05-01 14:07:00,
2013-05-01 10:12:00,59.0,46.8,30.09,West,270,2.0,2.0,64,0.00,,,0.00,meteohub,2013-05-01 14:12:00,
2013-05-01 10:17:00,59.5,47.3,30.09,SW,225,2.0,2.0,64,0.00,,,0.00,meteohub,2013-05-01 14:17:00,
2013-05-01 10:22:00,59.2,45.7,30.09,South,180,2.0,2.0,61,0.00,,,0.00,meteohub,2013-05-01 14:22:00,
2013-05-01 10:27:00,58.5,45.9,30.10,West,270,2.0,4.0,63,0.00,,,0.00,meteohub,2013-05-01 14:27:00,
2013-05-01 10:32:00,58.8,46.6,30.10,South,180,2.0,4.0,64,0.00,,,0.00,meteohub,2013-05-01 14:32:00,
2013-05-01 10:37:00,59.4,46.8,30.10,SW,225,2.0,4.0,63,0.00,,,0.00,meteohub,2013-05-01 14:37:00,
2013-05-01 10:42:00,59.7,46.8,30.11,SE,135,2.0,4.0,62,0.00,,,0.00,meteohub,2013-05-01 14:42:00,
2013-05-01 10:47:00,60.1,46.9,30.11,South,180,3.0,5.0,62,0.00,,,0.00,meteohub,2013-05-01 14:47:00,
2013-05-01 10:52:00,60.1,46.9,30.11,SW,225,3.0,5.0,62,0.00,,,0.00,meteohub,2013-05-01 14:52:00,
2013-05-01 10:57:00,59.9,46.4,30.11,South,180,2.0,5.0,61,0.00,,,0.00,meteohub,2013-05-01 14:57:00,
2013-05-01 11:02:00,60.4,46.9,30.11,SW,225,4.0,4.0,61,0.00,,,0.00,meteohub,2013-05-01 15:02:00,
2013-05-01 11:07:00,61.0,47.5,30.12,SE,135,4.0,6.0,61,0.00,,,0.00,meteohub,2013-05-01 15:07:00,
2013-05-01 11:12:00,61.3,46.9,30.12,NW,315,3.0,6.0,59,0.00,,,0.00,meteohub,2013-05-01 15:12:00,
2013-05-01 11:17:00,61.9,48.7,30.12,North,0,2.0,10.0,62,0.00,,,0.00,meteohub,2013-05-01 15:17:00,
2013-05-01 11:22:00,62.4,47.8,30.12,South,180,2.0,10.0,59,0.00,,,0.00,meteohub,2013-05-01 15:22:00,
2013-05-01 11:27:00,63.0,48.0,30.12,West,270,2.0,10.0,58,0.00,,,0.00,meteohub,2013-05-01 15:27:00,
2013-05-01 11:32:00,63.7,49.1,30.13,West,270,3.0,8.0,59,0.00,,,0.00,meteohub,2013-05-01 15:32:00,
2013-05-01 11:37:00,64.2,49.6,30.13,North,0,4.0,8.0,59,0.00,,,0.00,meteohub,2013-05-01 15:37:00,
2013-05-01 11:42:00,63.9,49.6,30.13,NE,45,4.0,8.0,60,0.00,,,0.00,meteohub,2013-05-01 15:42:00,
2013-05-01 11:48:00,63.9,50.2,30.13,East,90,2.0,4.0,61,0.00,,,0.00,meteohub,2013-05-01 15:48:00,
2013-05-01 11:53:00,63.7,50.0,30.13,SE,135,2.0,4.0,61,0.00,,,0.00,meteohub,2013-05-01 15:53:00,
2013-05-01 11:58:00,64.0,50.4,30.14,ESE,113,2.0,4.0,61,0.00,,,0.00,meteohub,2013-05-01 15:58:00,
2013-05-01 12:03:00,64.0,50.4,30.14,East,90,2.0,3.0,61,0.00,,,0.00,meteohub,2013-05-01 16:03:00,
2013-05-01 12:08:00,64.2,50.5,30.14,East,90,3.0,3.0,61,0.00,,,0.00,meteohub,2013-05-01 16:08:00,
2013-05-01 12:13:00,64.6,50.9,30.14,East,90,2.0,2.0,61,0.00,,,0.00,meteohub,2013-05-01 16:13:00,
2013-05-01 12:18:00,64.8,49.6,30.15,West,270,2.0,4.0,58,0.00,,,0.00,meteohub,2013-05-01 16:18:00,
2013-05-01 12:23:00,64.4,49.3,30.15,South,180,3.0,5.0,58,0.00,,,0.00,meteohub,2013-05-01 16:23:00,
2013-05-01 12:28:00,63.9,47.3,30.15,South,180,2.0,5.0,55,0.00,,,0.00,meteohub,2013-05-01 16:28:00,
2013-05-01 12:34:00,63.3,47.3,30.15,WSW,248,2.0,5.0,56,0.00,,,0.00,meteohub,2013-05-01 16:34:00,
2013-05-01 12:39:00,63.1,46.8,30.15,West,270,2.0,3.0,55,0.00,,,0.00,meteohub,2013-05-01 16:39:00,
2013-05-01 12:44:00,63.5,48.0,30.16,West,270,2.0,3.0,57,0.00,,,0.00,meteohub,2013-05-01 16:44:00,
2013-05-01 12:49:00,64.2,48.7,30.16,SE,135,2.0,3.0,57,0.00,,,0.00,meteohub,2013-05-01 16:49:00,
2013-05-01 12:54:00,64.6,49.5,30.16,West,270,2.0,3.0,58,0.00,,,0.00,meteohub,2013-05-01 16:54:00,
2013-05-01 12:59:00,64.6,48.9,30.17,NE,45,1.0,3.0,57,0.00,,,0.00,meteohub,2013-05-01 16:59:00,
2013-05-01 13:04:00,64.8,49.6,30.17,SW,225,4.0,4.0,58,0.00,,,0.00,meteohub,2013-05-01 17:04:00,
2013-05-01 13:09:00,64.9,49.8,30.17,SW,225,2.0,4.0,58,0.00,,,0.00,meteohub,2013-05-01 17:09:00,
2013-05-01 13:14:00,65.1,50.0,30.17,WNW,293,5.0,5.0,58,0.00,,,0.00,meteohub,2013-05-01 17:14:00,
2013-05-01 13:19:00,65.1,50.0,30.17,West,270,4.0,5.0,58,0.00,,,0.00,meteohub,2013-05-01 17:19:00,
2013-05-01 13:23:00,65.3,49.6,30.17,West,270,4.0,5.0,57,0.00,,,0.00,meteohub,2013-05-01 17:23:00,
2013-05-01 13:27:00,65.3,49.3,30.17,South,180,3.0,5.0,56,0.00,,,0.00,meteohub,2013-05-01 17:27:00,
2013-05-01 13:32:00,64.9,48.9,30.16,NNW,338,2.0,4.0,56,0.00,,,0.00,meteohub,2013-05-01 17:32:00,
2013-05-01 13:37:00,64.4,47.8,30.16,West,270,3.0,4.0,55,0.00,,,0.00,meteohub,2013-05-01 17:37:00,
2013-05-01 13:42:00,63.9,46.4,30.16,West,270,2.0,4.0,53,0.00,,,0.00,meteohub,2013-05-01 17:42:00,
2013-05-01 13:47:00,63.1,46.2,30.16,SW,225,2.0,3.0,54,0.00,,,0.00,meteohub,2013-05-01 17:47:00,
2013-05-01 13:52:00,63.9,47.8,30.16,NW,315,3.0,3.0,56,0.00,,,0.00,meteohub,2013-05-01 17:52:00,
2013-05-01 13:57:00,64.9,48.9,30.16,West,270,4.0,4.0,56,0.00,,,0.00,meteohub,2013-05-01 17:57:00,
2013-05-01 14:02:00,65.5,49.3,30.16,SE,135,2.0,5.0,56,0.00,,,0.00,meteohub,2013-05-01 18:02:00,
2013-05-01 14:07:00,65.5,49.3,30.16,SE,135,2.0,5.0,56,0.00,,,0.00,meteohub,2013-05-01 18:07:00,
2013-05-01 14:12:00,65.7,48.6,30.16,South,180,4.0,5.0,54,0.00,,,0.00,meteohub,2013-05-01 18:12:00,
2013-05-01 14:17:00,64.2,46.2,30.17,South,180,3.0,4.0,52,0.00,,,0.00,meteohub,2013-05-01 18:17:00,
2013-05-01 14:22:00,62.2,45.3,30.17,South,180,5.0,5.0,54,0.00,,,0.00,meteohub,2013-05-01 18:22:00,
2013-05-01 14:27:00,59.5,44.2,30.17,South,180,4.0,5.0,57,0.00,,,0.00,meteohub,2013-05-01 18:27:00,
2013-05-01 14:32:00,59.5,46.0,30.17,South,180,3.0,5.0,61,0.00,,,0.00,meteohub,2013-05-01 18:32:00,
2013-05-01 14:37:00,60.4,46.9,30.18,South,180,3.0,5.0,61,0.00,,,0.00,meteohub,2013-05-01 18:37:00,
2013-05-01 14:42:00,61.3,47.3,30.17,South,180,3.0,4.0,60,0.00,,,0.00,meteohub,2013-05-01 18:42:00,
2013-05-01 14:47:00,61.5,45.7,30.18,South,180,4.0,4.0,56,0.00,,,0.00,meteohub,2013-05-01 18:47:00,
2013-05-01 14:52:00,61.0,45.7,30.17,South,180,5.0,5.0,57,0.00,,,0.00,meteohub,2013-05-01 18:52:00,
2013-05-01 14:57:00,60.3,45.9,30.17,SSW,203,6.0,6.0,59,0.00,,,0.00,meteohub,2013-05-01 18:57:00,
2013-05-01 15:03:00,61.0,47.5,30.17,SE,135,4.0,6.0,61,0.00,,,0.00,meteohub,2013-05-01 19:03:00,
2013-05-01 15:08:00,61.3,46.4,30.18,SE,135,3.0,7.0,58,0.00,,,0.00,meteohub,2013-05-01 19:08:00,
2013-05-01 15:13:00,62.1,48.4,30.18,South,180,4.0,7.0,61,0.00,,,0.00,meteohub,2013-05-01 19:13:00,
2013-05-01 15:18:00,63.5,47.5,30.17,WNW,293,4.0,11.0,56,0.00,,,0.00,meteohub,2013-05-01 19:18:00,
2013-05-01 15:23:00,62.2,46.8,30.18,WNW,293,3.0,11.0,57,0.00,,,0.00,meteohub,2013-05-01 19:23:00,
2013-05-01 15:28:00,64.9,49.8,30.18,SE,135,16.0,16.0,58,0.00,,,0.00,meteohub,2013-05-01 19:28:00,
2013-05-01 15:33:00,67.1,48.4,30.18,SW,225,10.0,16.0,51,0.00,,,0.00,meteohub,2013-05-01 19:33:00,
2013-05-01 15:38:00,67.6,46.8,30.18,SE,135,18.0,18.0,47,0.00,,,0.00,meteohub,2013-05-01 19:38:00,
2013-05-01 15:43:00,67.6,45.5,30.18,East,90,16.0,18.0,45,0.00,,,0.00,meteohub,2013-05-01 19:43:00,
2013-05-01 15:48:00,67.5,45.3,30.19,SE,135,18.0,18.0,45,0.00,,,0.00,meteohub,2013-05-01 19:48:00,
2013-05-01 15:53:00,67.5,45.3,30.19,SE,135,19.0,21.0,45,0.00,,,0.00,meteohub,2013-05-01 19:53:00,
2013-05-01 15:58:00,67.5,45.3,30.19,SE,135,17.0,21.0,45,0.00,,,0.00,meteohub,2013-05-01 19:58:00,
2013-05-01 16:03:00,67.5,45.3,30.19,East,90,20.0,21.0,45,0.00,,,0.00,meteohub,2013-05-01 20:03:00,
2013-05-01 16:08:00,67.6,45.5,30.19,SE,135,17.0,21.0,45,0.00,,,0.00,meteohub,2013-05-01 20:08:00,
2013-05-01 16:13:00,68.0,44.6,30.19,SE,135,17.0,20.0,43,0.00,,,0.00,meteohub,2013-05-01 20:13:00,
2013-05-01 16:18:00,67.6,45.0,30.19,East,90,4.0,20.0,44,0.00,,,0.00,meteohub,2013-05-01 20:18:00,
2013-05-01 16:23:00,68.0,44.6,30.19,South,180,8.0,20.0,43,0.00,,,0.00,meteohub,2013-05-01 20:23:00,
2013-05-01 16:28:00,68.0,43.3,30.19,East,90,15.0,19.0,41,0.00,,,0.00,meteohub,2013-05-01 20:28:00,
2013-05-01 16:33:00,67.6,44.4,30.19,SE,135,16.0,19.0,43,0.00,,,0.00,meteohub,2013-05-01 20:33:00,
2013-05-01 16:38:00,67.3,42.8,30.19,East,90,15.0,17.0,41,0.00,,,0.00,meteohub,2013-05-01 20:38:00,
2013-05-01 16:43:00,67.1,43.2,30.19,East,90,11.0,21.0,42,0.00,,,0.00,meteohub,2013-05-01 20:43:00,
2013-05-01 16:48:00,67.5,43.0,30.20,East,90,13.0,21.0,41,0.00,,,0.00,meteohub,2013-05-01 20:48:00,
2013-05-01 16:53:00,67.3,42.8,30.20,East,90,15.0,21.0,41,0.00,,,0.00,meteohub,2013-05-01 20:53:00,
2013-05-01 16:58:00,66.9,41.9,30.20,East,90,21.0,21.0,40,0.00,,,0.00,meteohub,2013-05-01 20:58:00,
2013-05-01 17:04:00,65.5,41.2,30.20,ENE,68,22.0,22.0,41,0.00,,,0.00,meteohub,2013-05-01 21:04:00,
2013-05-01 17:09:00,64.4,40.8,30.21,East,90,24.0,24.0,42,0.00,,,0.00,meteohub,2013-05-01 21:09:00,
2013-05-01 17:14:00,63.7,40.1,30.21,East,90,24.0,24.0,42,0.00,,,0.00,meteohub,2013-05-01 21:14:00,
2013-05-01 17:17:00,63.3,39.9,30.21,East,90,12.0,24.0,42,0.00,,,0.00,meteohub,2013-05-01 21:17:00,
2013-05-01 17:22:00,63.5,39.4,30.21,East,90,23.0,24.0,41,0.00,,,0.00,meteohub,2013-05-01 21:22:00,
2013-05-01 17:27:00,62.6,38.5,30.21,East,90,17.0,27.0,41,0.00,,,0.00,meteohub,2013-05-01 21:27:00,
2013-05-01 17:32:00,62.4,39.6,30.22,East,90,14.0,27.0,43,0.00,,,0.00,meteohub,2013-05-01 21:32:00,
2013-05-01 17:37:00,62.2,38.8,30.22,East,90,20.0,27.0,42,0.00,,,0.00,meteohub,2013-05-01 21:37:00,
2013-05-01 17:42:00,62.1,39.4,30.22,East,90,20.0,27.0,43,0.00,,,0.00,meteohub,2013-05-01 21:42:00,
2013-05-01 17:47:00,61.9,39.2,30.22,East,90,21.0,26.0,43,0.00,,,0.00,meteohub,2013-05-01 21:47:00,
2013-05-01 17:52:00,61.5,38.8,30.23,East,90,23.0,26.0,43,0.00,,,0.00,meteohub,2013-05-01 21:52:00,
2013-05-01 17:57:00,61.3,38.7,30.23,East,90,13.0,26.0,43,0.00,,,0.00,meteohub,2013-05-01 21:57:00,
2013-05-01 18:02:00,61.3,38.7,30.24,NE,45,21.0,24.0,43,0.00,,,0.00,meteohub,2013-05-01 22:02:00,
2013-05-01 18:07:00,61.3,38.7,30.24,NE,45,21.0,23.0,43,0.00,,,0.00,meteohub,2013-05-01 22:07:00,
2013-05-01 18:12:00,60.3,38.8,30.24,ENE,68,23.0,23.0,45,0.00,,,0.00,meteohub,2013-05-01 22:12:00,
2013-05-01 18:17:00,59.9,37.9,30.24,NE,45,23.0,27.0,44,0.00,,,0.00,meteohub,2013-05-01 22:17:00,
2013-05-01 18:22:00,59.7,38.3,30.24,NE,45,19.0,27.0,45,0.00,,,0.00,meteohub,2013-05-01 22:22:00,
2013-05-01 18:27:00,59.5,38.1,30.24,East,90,20.0,25.0,45,0.00,,,0.00,meteohub,2013-05-01 22:27:00,
2013-05-01 18:32:00,59.2,37.9,30.24,East,90,21.0,28.0,45,0.00,,,0.00,meteohub,2013-05-01 22:32:00,
2013-05-01 18:37:00,59.2,37.9,30.24,East,90,20.0,28.0,45,0.00,,,0.00,meteohub,2013-05-01 22:37:00,
2013-05-01 18:42:00,59.2,37.9,30.25,East,90,22.0,28.0,45,0.00,,,0.00,meteohub,2013-05-01 22:42:00,
2013-05-01 18:47:00,59.0,37.8,30.24,East,90,22.0,24.0,45,0.00,,,0.00,meteohub,2013-05-01 22:47:00,
2013-05-01 18:52:00,58.6,37.9,30.25,ENE,68,25.0,27.0,46,0.00,,,0.00,meteohub,2013-05-01 22:52:00,
2013-05-01 18:57:00,58.3,37.6,30.25,NE,45,22.0,27.0,46,0.00,,,0.00,meteohub,2013-05-01 22:57:00,
2013-05-01 19:03:00,57.7,37.6,30.24,SE,135,15.0,30.0,47,0.00,,,0.00,meteohub,2013-05-01 23:03:00,
2013-05-01 19:08:00,57.6,37.4,30.25,NE,45,21.0,30.0,47,0.00,,,0.00,meteohub,2013-05-01 23:08:00,
2013-05-01 19:13:00,57.6,37.4,30.25,NE,45,19.0,30.0,47,0.00,,,0.00,meteohub,2013-05-01 23:13:00,
2013-05-01 19:18:00,57.2,37.2,30.25,NE,45,14.0,27.0,47,0.00,,,0.00,meteohub,2013-05-01 23:18:00,
2013-05-01 19:23:00,56.7,37.2,30.26,NE,45,22.0,23.0,48,0.00,,,0.00,meteohub,2013-05-01 23:23:00,
2013-05-01 19:28:00,56.1,37.2,30.26,NE,45,21.0,33.0,49,0.00,,,0.00,meteohub,2013-05-01 23:28:00,
2013-05-01 19:33:00,55.8,36.9,30.26,North,0,23.0,33.0,49,0.00,,,0.00,meteohub,2013-05-01 23:33:00,
2013-05-01 19:38:00,55.4,37.0,30.26,NE,45,20.0,33.0,50,0.00,,,0.00,meteohub,2013-05-01 23:38:00,
2013-05-01 19:43:00,55.0,37.2,30.27,NE,45,21.0,24.0,51,0.00,,,0.00,meteohub,2013-05-01 23:43:00,
2013-05-01 19:48:00,54.7,36.9,30.27,NE,45,22.0,25.0,51,0.00,,,0.00,meteohub,2013-05-01 23:48:00,
2013-05-01 19:53:00,54.3,37.0,30.27,NNE,23,15.0,25.0,52,0.00,,,0.00,meteohub,2013-05-01 23:53:00,
2013-05-01 19:58:00,54.0,36.7,30.27,NE,45,23.0,27.0,52,0.00,,,0.00,meteohub,2013-05-01 23:58:00,
2013-05-01 20:00:00,53.8,36.5,30.27,NE,45,23.0,27.0,52,0.00,,,0.00,meteohub,2013-05-02 00:00:00,
2013-05-01 20:07:00,53.8,36.5,30.28,NE,45,23.0,25.0,52,0.00,,,0.00,meteohub,2013-05-02 00:07:00,
2013-05-01 20:15:00,52.9,36.7,30.28,NE,45,19.0,23.0,54,0.00,,,0.00,meteohub,2013-05-02 00:15:00,
2013-05-01 20:20:00,52.7,36.5,30.28,NE,45,17.0,23.0,54,0.00,,,0.00,meteohub,2013-05-02 00:20:00,
2013-05-01 20:25:00,52.5,36.3,30.28,NE,45,19.0,23.0,54,0.00,,,0.00,meteohub,2013-05-02 00:25:00,
2013-05-01 20:30:00,52.2,36.0,30.28,NE,45,22.0,23.0,54,0.00,,,0.00,meteohub,2013-05-02 00:30:00,
2013-05-01 20:35:00,52.0,36.3,30.29,NE,45,23.0,24.0,55,0.00,,,0.00,meteohub,2013-05-02 00:35:00,
2013-05-01 20:40:00,51.8,36.1,30.29,NE,45,18.0,24.0,55,0.00,,,0.00,meteohub,2013-05-02 00:40:00,
2013-05-01 20:45:00,51.4,36.3,30.29,NE,45,23.0,24.0,56,0.00,,,0.00,meteohub,2013-05-02 00:45:00,
2013-05-01 20:50:00,51.4,36.3,30.30,NE,45,18.0,27.0,56,0.00,,,0.00,meteohub,2013-05-02 00:50:00,
2013-05-01 20:55:00,51.1,35.4,30.29,NE,45,21.0,27.0,55,0.00,,,0.00,meteohub,2013-05-02 00:55:00,
2013-05-01 21:00:00,50.7,35.1,30.30,NE,45,19.0,27.0,55,0.00,,,0.00,meteohub,2013-05-02 01:00:00,
2013-05-01 21:05:00,50.5,35.1,30.30,NE,45,21.0,27.0,55,0.00,,,0.00,meteohub,2013-05-02 01:05:00,
2013-05-01 21:10:00,50.2,34.7,30.30,NE,45,17.0,25.0,55,0.00,,,0.00,meteohub,2013-05-02 01:10:00,
2013-05-01 21:15:00,50.0,34.5,30.31,North,0,17.0,25.0,55,0.00,,,0.00,meteohub,2013-05-02 01:15:00,
2013-05-01 21:21:00,49.6,34.5,30.30,NE,45,18.0,24.0,56,0.00,,,0.00,meteohub,2013-05-02 01:21:00,
2013-05-01 21:26:00,49.3,34.2,30.31,NE,45,26.0,26.0,56,0.00,,,0.00,meteohub,2013-05-02 01:26:00,
2013-05-01 21:31:00,48.9,34.0,30.31,NE,45,18.0,26.0,56,0.00,,,0.00,meteohub,2013-05-02 01:31:00,
2013-05-01 21:36:00,48.6,34.0,30.31,NE,45,17.0,26.0,57,0.00,,,0.00,meteohub,2013-05-02 01:36:00,
2013-05-01 21:41:00,48.2,33.6,30.32,NE,45,17.0,27.0,57,0.00,,,0.00,meteohub,2013-05-02 01:41:00,
2013-05-01 21:46:00,48.0,34.0,30.32,NE,45,26.0,27.0,58,0.00,,,0.00,meteohub,2013-05-02 01:46:00,
2013-05-01 21:51:00,47.7,34.0,30.32,NE,45,15.0,27.0,59,0.00,,,0.00,meteohub,2013-05-02 01:51:00,
2013-05-01 21:56:00,47.5,33.8,30.32,NE,45,15.0,26.0,59,0.00,,,0.00,meteohub,2013-05-02 01:56:00,
2013-05-01 22:01:00,47.1,34.0,30.32,NE,45,23.0,27.0,60,0.00,,,0.00,meteohub,2013-05-02 02:01:00,
2013-05-01 22:06:00,47.1,34.0,30.32,NE,45,23.0,27.0,60,0.00,,,0.00,meteohub,2013-05-02 02:06:00,
2013-05-01 22:11:00,46.6,33.8,30.32,NE,45,17.0,27.0,61,0.00,,,0.00,meteohub,2013-05-02 02:11:00,
2013-05-01 22:16:00,46.2,34.0,30.32,WSW,248,19.0,23.0,62,0.00,,,0.00,meteohub,2013-05-02 02:16:00,
2013-05-01 22:21:00,45.9,33.6,30.32,North,0,19.0,25.0,62,0.00,,,0.00,meteohub,2013-05-02 02:21:00,
2013-05-01 22:26:00,45.7,33.4,30.32,East,90,25.0,25.0,62,0.00,,,0.00,meteohub,2013-05-02 02:26:00,
2013-05-01 22:31:00,45.3,32.7,30.32,NE,45,20.0,25.0,61,0.00,,,0.00,meteohub,2013-05-02 02:31:00,
2013-05-01 22:36:00,45.1,32.9,30.32,NE,45,19.0,25.0,62,0.00,,,0.00,meteohub,2013-05-02 02:36:00,
2013-05-01 22:41:00,45.0,32.7,30.33,NE,45,23.0,27.0,62,0.00,,,0.00,meteohub,2013-05-02 02:41:00,
2013-05-01 22:46:00,44.8,32.5,30.32,NE,45,21.0,27.0,62,0.00,,,0.00,meteohub,2013-05-02 02:46:00,
2013-05-01 22:51:00,44.6,32.7,30.32,NE,45,23.0,27.0,63,0.00,,,0.00,meteohub,2013-05-02 02:51:00,
2013-05-01 22:56:00,44.6,32.7,30.32,North,0,17.0,26.0,63,0.00,,,0.00,meteohub,2013-05-02 02:56:00,
2013-05-01 23:01:00,44.4,33.1,30.32,NE,45,16.0,26.0,64,0.00,,,0.00,meteohub,2013-05-02 03:01:00,
2013-05-01 23:06:00,44.2,33.3,30.32,NE,45,18.0,23.0,65,0.00,,,0.00,meteohub,2013-05-02 03:06:00,
2013-05-01 23:11:00,44.2,33.3,30.32,NE,45,22.0,29.0,65,0.00,,,0.00,meteohub,2013-05-02 03:11:00,
2013-05-01 23:16:00,44.2,33.3,30.33,NE,45,20.0,29.0,65,0.00,,,0.00,meteohub,2013-05-02 03:16:00,
2013-05-01 23:22:00,44.1,33.1,30.32,NE,45,21.0,29.0,65,0.00,,,0.00,meteohub,2013-05-02 03:22:00,
2013-05-01 23:27:00,44.1,33.1,30.32,NE,45,17.0,28.0,65,0.00,,,0.00,meteohub,2013-05-02 03:27:00,
2013-05-01 23:32:00,43.9,32.9,30.32,NE,45,12.0,28.0,65,0.00,,,0.00,meteohub,2013-05-02 03:32:00,
2013-05-01 23:37:00,43.9,32.9,30.32,North,0,17.0,23.0,65,0.00,,,0.00,meteohub,2013-05-02 03:37:00,
2013-05-01 23:42:00,43.7,32.7,30.33,NE,45,16.0,23.0,65,0.00,,,0.00,meteohub,2013-05-02 03:42:00,
2013-05-01 23:47:00,43.7,32.7,30.32,NE,45,17.0,23.0,65,0.00,,,0.00,meteohub,2013-05-02 03:47:00,
2013-05-01 23:52:00,43.5,32.5,30.32,NNE,23,21.0,23.0,65,0.00,,,0.00,meteohub,2013-05-02 03:52:00,
2013-05-01 23:57:00,43.3,32.4,30.33,NE,45,15.0,23.0,65,0.00,,,0.00,meteohub,2013-05-02 03:57:00,